FLOCK 3P-64 (42034 NORAD) Tracking and Keplerian Element Data

This shows tracking and keplerian element data for the satellite.

Feedback or suggestion? Click here.




ElementValue
Catalog42034
NameFLOCK 3P-64
Epoch Orbit32645
Epoch Day358.73320676
Epoch Year2022
RAAN65.0798
Inclination97.244
Eccentricity0.0005599
Argument of Perigee287.6949
Mean Anonmoly72.3702
Mean Motion15.7075256
Decay Rate0.00399454
L11 42034U 17008CQ 22358.73320676 .00399454 00000+0 30816-2 0 9996
L22 42034 97.2440 65.0798 0005599 287.6949 72.3702 15.70752560326458



Live tracking and technical data element details for FLOCK 3P-64 (NORAD 42034). FLOCK 3P-64 can be tracked NOW for your location showing map with azimuth and elevation plus other details from your city location.







IsCatalogInMostPopularTable: catalog: 42034, numindb: 659
Update: records affected: 1



GetName: 42034 FLOCK 3P-64

Hit Count: updated at: Thu, 13 Feb 2025 16:44:25 GMT